Location: City of Moscow
(46.7306°N, 116.9989°W)
Time: 03:09:15
(UTC+00:00)

Cosmos 1626 Rocket - Pass Details

Date: 21 March 2026
Orbit: 596 x 624 km, 82.5° (Epoch: 13 April)

Event Time Altitude Azimuth Distance (km) Brightness Sun altitude
Rises 11:02:03 0° 358° (N) 2,888 7.4 -27.8°
Reaches altitude 10° 11:04:29 10° 8° (N) 1,974 6.6 -27.4°
Maximum altitude 11:08:26 33° 73° (ENE) 1,030 5.2 -26.8°
Drops below altitude 10° 11:12:20 10° 138° (SE) 1,944 6.2 -26.3°
Sets 11:14:42 0° 148° (SSE) 2,837 7.0 -25.9°
